Regional & State Weather Roundups


722 
ASUS43 KIND 232309
RWRIN 
WEATHER ROUNDUP FOR INDIANA
NATIONAL WEATHER SERVICE INDIANAPOLIS IN
600 PM EST THU NOV 23 2017
NOTE: "FAIR" INDICATES FEW OR NO CLOUDS BELOW 12,000 FEET WITH NO
SIGNIFICANT WEATHER AND/OR OBSTRUCTIONS TO VISIBILITY.
* - STATION DOES NOT REPORT WEATHER SUCH AS PRECIPITATION OR FOG.
+ - STATION NOT QUALITY CONTROLLED BY THE NATIONAL WEATHER SERVICE.
    USE DATA WITH CAUTION...ESPECIALLY DEWPOINT AND RELATIVE
    HUMIDITY OBSERVATIONS.
INZ001>003-010>013-019-020-240000-
NORTHWEST INDIANA
  
CITY           SKY/WX    TMP DP  RH WIND       PRES   REMARKS
GARY /AIRPORT/ CLEAR     46  25  42 S3        29.93R                  
KNOX *+        CLEAR     36  27  69 S7        29.94F WCI  30          
LA PORTE +     CLEAR     39  26  61 S3        29.94S                  
MICHIGAN CITY+ CLEAR     39  27  60 S5        29.94R WCI  36          
MONTICELLO +   CLEAR     39  24  55 S5        29.96R WCI  36          
RENSSELAER +   CLEAR     39  23  52 S7        29.95S WCI  34          
VALPARAISO     CLEAR     42  27  55 SW5       29.94S                  
$$
LMZ046-743>745-240000-
SOUTHERN LAKE MICHIGAN
  
STATION/POSITION TIME  TEMP    WIND        PRES    WAVE
                       AIR SEA DIR/SP/G            HT
                 (UTC) (F)     (DEG/KT/KT) (MB)    (FT)
BURNS HARBOR     2211   46     210/  5/ 16 1013.9S
MICHIGAN CITY    2240   44     170/  6/  7   N/A
$$
INZ004-005-014>016-021>024-240000-
NORTH CENTRAL INDIANA
  
CITY           SKY/WX    TMP DP  RH WIND       PRES   REMARKS
GOSHEN         CLEAR     37  23  56 S8        29.94S WCI  31          
LOGANSPORT +   CLEAR     36  27  69 SW6       29.97R WCI  31          
PERU/GRISSOM   CLEAR     35  24  64 SW7       29.95S WCI  30          
ROCHESTER +    CLEAR     41  27  56 SW6       29.96R                  
SOUTH BEND     CLEAR     37  25  61 S7        29.94S WCI  32          
WARSAW +       CLEAR     37  25  60 CALM      29.95S                  
$$
INZ006>009-017-018-025>027-240000-
NORTHEAST INDIANA
  
CITY           SKY/WX    TMP DP  RH WIND       PRES   REMARKS
AUBURN +       CLEAR     36  21  55 S3        29.96S                  
FORT WAYNE     CLEAR     36  26  67 S9        29.96S WCI  29          
HUNTINGTON +   CLEAR     38  23  54 S3        29.95F                  
KENDALLVILLE + CLEAR     37  23  58 SW3       29.95S                  
$$
INZ028-029-035-036-043>045-051>053-240000-
WEST CENTRAL INDIANA
  
CITY           SKY/WX    TMP DP  RH WIND       PRES   REMARKS
CRAWFORDSVL +  CLEAR     36  24  64 S7        29.94S WCI  30          
GREENCASTLE +  CLEAR     39  18  41 S3        29.98F                  
LAFAYETTE      CLEAR     41  25  53 SW3       29.97R                  
TERRE HAUTE    CLEAR     40  23  50 S8        29.98F WCI  34          
$$
INZ030>032-037>040-046>048-054>057-064-065-240000-
CENTRAL INDIANA
  
CITY           SKY/WX    TMP DP  RH WIND       PRES   REMARKS
CP ATTERBURY + CLEAR     39  23  52 S7        30.00S WCI  34          
COLUMBUS       CLEAR     39  18  41 S5        30.01S WCI  36          
FISHERS *+     CLEAR     37  27  65 S6        29.97F WCI  33          
FRANKFORT +    CLEAR     38  25  60 SW3       29.98S                  
GREENWOOD *+   CLEAR     42  22  45 S5        29.99F                  
INDIANAPOLIS   CLEAR     40  20  44 S8        29.98F WCI  34          
-EAGLE CREEK   CLEAR     42  17  36 S5        29.97F                  
KOKOMO +       CLEAR     37  24  59 S7        29.97S WCI  32          
MARION +       CLEAR     37  26  65 S8        29.97S WCI  30          
MT COMFORT *+  CLEAR     37  28  70 S7        29.99S WCI  32          
SHELBYVILLE    CLEAR     38  25  59 S7        29.99S WCI  33          
ZIONSVILLE +   CLEAR     38  21  50 S6        29.97F WCI  33          
$$
INZ033-034-041-042-049-050-058-059-240000-
EAST CENTRAL INDIANA
  
CITY           SKY/WX    TMP DP  RH WIND       PRES   REMARKS
MUNCIE         CLEAR     41  24  51 S9        29.97F                  
RICHMOND +     CLEAR     32  28  86 S6        30.00S WCI  26          
$$
INZ060-061-067>069-081>083-085>088-240000-
SOUTHWEST INDIANA
  
CITY           SKY/WX    TMP DP  RH WIND       PRES   REMARKS
EVANSVILLE     CLEAR     45  22  40 S5        30.02F                  
HUNTINGBURG +  CLEAR     42  25  50 S6        30.02F                  
WASHINGTON +   CLEAR     40  27  59 S7        30.00F WCI  35          
$$
INZ062-063-066-070>080-084-089>092-240000-
SOUTH CENTRAL AND SOUTHEAST INDIANA
  
CITY           SKY/WX    TMP DP  RH WIND       PRES   REMARKS
BEDFORD +      CLEAR     41  19  42 S3        29.99                   
BLOOMINGTON    CLEAR     41  18  39 S6        29.99F                  
MADISON *+     CLEAR     41  21  45 CALM      30.04S                  
NORTH VERNON + CLEAR     37  23  56 S5        30.01F WCI  34          
SEYMOUR +      CLEAR     43  23  45 S5        30.01                   
$$